Location: Dana
(41.8364°N, 106.7042°W)
Time: 20:40:09
(UTC+00:00)

Tiros 1 despin weight - Pass Details

Date: 15 May 2026
Orbit: 555 x 591 km, 48.2° (Epoch: 1 June)

Event Time Altitude Azimuth Distance (km) Brightness Sun altitude
Rises 17:02:20 0° 297° (WNW) 2,735 ? 55.7°
Reaches altitude 10° 17:04:36 10° 299° (WNW) 1,836 ? 56.0°
Maximum altitude 17:08:47 75° 25° (NNE) 576 ? 56.7°
Drops below altitude 10° 17:12:57 10° 111° (ESE) 1,830 ? 57.3°
Sets 17:15:12 0° 114° (ESE) 2,725 ? 57.6°
